Location: Newark
(48.1500°N, 13.1167°E)
Time: 22:17:23
(UTC+00:00)

N. Korean satellite - Pass Details

Date: 30 September 2021
Orbit: 450 x 495 km, 97.3° (Epoch: 21 October)

Event Time Altitude Azimuth Distance (km) Brightness Sun altitude
Rises 04:17:35 0° 16° (NNE) 2,543 10.5 -8.8°
Reaches altitude 10° 04:19:40 10° 20° (NNE) 1,667 9.6 -8.5°
Maximum altitude 04:23:13 59° 101° (E) 565 7.3 -7.9°
Drops below altitude 10° 04:26:46 10° 182° (S) 1,675 9.2 -7.3°
Sets 04:28:52 0° 186° (S) 2,557 10.1 -6.9°
